TimeEDT,TemperatureF,Dew PointF,Humidity,Sea Level PressureIn,VisibilityMPH,Wind Direction,Wind SpeedMPH,Gust SpeedMPH,PrecipitationIn,Events,Conditions,WindDirDegrees,DateUTC
12:15 AM,46.4,32.0,57,29.77,10.0,Calm,Calm,-,N/A,,Overcast,0,2013-03-16 04:15:00
12:35 AM,46.4,32.0,57,29.78,10.0,NW,4.6,-,N/A,,Overcast,320,2013-03-16 04:35:00
12:55 AM,46.4,32.0,57,29.78,10.0,NW,3.5,-,N/A,,Overcast,320,2013-03-16 04:55:00
1:15 AM,46.4,32.0,57,29.77,10.0,NNW,3.5,-,N/A,,Overcast,330,2013-03-16 05:15:00
1:35 AM,46.4,32.0,57,29.78,10.0,NW,9.2,-,N/A,,Overcast,310,2013-03-16 05:35:00
1:55 AM,46.4,32.0,57,29.78,10.0,NW,3.5,-,N/A,,Overcast,310,2013-03-16 05:55:00
2:15 AM,46.4,32.0,57,29.79,10.0,NNW,3.5,-,N/A,,Overcast,340,2013-03-16 06:15:00
2:35 AM,44.6,32.0,61,29.79,10.0,NW,4.6,-,N/A,,Overcast,320,2013-03-16 06:35:00
2:55 AM,44.6,32.0,61,29.80,10.0,NNW,3.5,-,N/A,,Overcast,330,2013-03-16 06:55:00
3:15 AM,44.6,32.0,61,29.80,10.0,NNW,4.6,-,N/A,,Overcast,330,2013-03-16 07:15:00
3:35 AM,44.6,30.2,57,29.80,10.0,NNW,6.9,-,N/A,,Overcast,340,2013-03-16 07:35:00
3:55 AM,42.8,30.2,61,29.80,10.0,NNW,5.8,-,N/A,,Overcast,340,2013-03-16 07:55:00
4:15 AM,42.8,30.2,61,29.80,10.0,NNW,4.6,-,N/A,,Overcast,340,2013-03-16 08:15:00
4:35 AM,42.8,28.4,57,29.80,10.0,North,4.6,-,N/A,,Overcast,350,2013-03-16 08:35:00
4:55 AM,42.8,28.4,57,29.80,10.0,North,4.6,-,N/A,,Overcast,350,2013-03-16 08:55:00
5:15 AM,42.8,28.4,57,29.80,10.0,North,3.5,-,N/A,,Overcast,350,2013-03-16 09:15:00
5:35 AM,42.8,28.4,57,29.81,10.0,North,4.6,-,N/A,,Overcast,350,2013-03-16 09:35:00
6:15 AM,41.0,28.4,61,29.81,10.0,NNE,5.8,-,N/A,,Overcast,20,2013-03-16 10:15:00
6:35 AM,41.0,26.6,57,29.82,10.0,Calm,Calm,-,N/A,,Overcast,0,2013-03-16 10:35:00
6:55 AM,41.0,26.6,57,29.82,10.0,NNE,3.5,-,N/A,,Overcast,20,2013-03-16 10:55:00
7:15 AM,41.0,26.6,57,29.83,10.0,Calm,Calm,-,N/A,,Overcast,0,2013-03-16 11:15:00
7:35 AM,39.2,26.6,61,29.83,10.0,Calm,Calm,-,N/A,,Scattered Clouds,0,2013-03-16 11:35:00
7:55 AM,39.2,26.6,61,29.83,10.0,NE,5.8,-,N/A,,Scattered Clouds,50,2013-03-16 11:55:00
8:15 AM,39.2,26.6,61,29.83,10.0,NE,5.8,-,N/A,,Mostly Cloudy,40,2013-03-16 12:15:00
8:35 AM,39.2,24.8,56,29.82,10.0,ENE,8.1,-,N/A,,Mostly Cloudy,60,2013-03-16 12:35:00
8:55 AM,37.4,24.8,60,29.83,10.0,ENE,4.6,-,N/A,,Mostly Cloudy,60,2013-03-16 12:55:00
9:15 AM,39.2,23.0,52,29.83,10.0,Calm,Calm,-,N/A,,Overcast,0,2013-03-16 13:15:00
9:35 AM,39.2,23.0,52,29.82,10.0,ENE,5.8,-,N/A,,Scattered Clouds,70,2013-03-16 13:35:00
9:55 AM,37.4,24.8,60,29.83,10.0,East,3.5,-,N/A,,Mostly Cloudy,100,2013-03-16 13:55:00
10:15 AM,37.4,26.6,65,29.84,7.0,Calm,Calm,-,N/A,,Overcast,0,2013-03-16 14:15:00
10:35 AM,37.4,28.4,70,29.84,10.0,NE,4.6,-,N/A,,Overcast,50,2013-03-16 14:35:00
10:55 AM,37.4,28.4,70,29.84,10.0,East,3.5,-,N/A,,Overcast,90,2013-03-16 14:55:00
11:15 AM,35.6,30.2,81,29.84,5.0,NE,4.6,-,N/A,,Overcast,50,2013-03-16 15:15:00
11:35 AM,35.6,30.2,81,29.83,3.0,Calm,Calm,-,N/A,,Overcast,0,2013-03-16 15:35:00
11:55 AM,33.8,32.0,93,29.83,0.8,Calm,Calm,-,0.01,,Overcast,0,2013-03-16 15:55:00
12:15 PM,33.8,32.0,93,29.82,1.0,ENE,4.6,-,N/A,,Overcast,70,2013-03-16 16:15:00
12:35 PM,33.8,32.0,93,29.81,3.0,ENE,5.8,-,0.01,,Overcast,70,2013-03-16 16:35:00
12:55 PM,33.8,32.0,93,29.81,5.0,ENE,4.6,-,0.01,,Overcast,60,2013-03-16 16:55:00
1:15 PM,33.8,32.0,93,29.78,7.0,ENE,8.1,-,N/A,,Overcast,60,2013-03-16 17:15:00
1:35 PM,33.8,32.0,93,29.78,7.0,ENE,6.9,-,N/A,,Overcast,70,2013-03-16 17:35:00
1:55 PM,33.8,32.0,93,29.78,10.0,ENE,8.1,-,N/A,,Overcast,60,2013-03-16 17:55:00
2:15 PM,33.8,32.0,93,29.78,5.0,NE,6.9,-,N/A,,Overcast,50,2013-03-16 18:15:00
2:35 PM,33.8,32.0,93,29.78,3.0,NE,4.6,-,0.01,,Overcast,50,2013-03-16 18:35:00
2:55 PM,33.8,32.0,93,29.76,4.0,East,10.4,-,0.01,,Overcast,80,2013-03-16 18:55:00
3:15 PM,33.8,32.0,93,29.75,1.5,East,9.2,-,N/A,,Overcast,90,2013-03-16 19:15:00
3:35 PM,33.8,32.0,93,29.77,5.0,NNE,5.8,-,N/A,,Overcast,20,2013-03-16 19:35:00
3:55 PM,33.8,32.0,93,29.76,5.0,ENE,5.8,-,N/A,,Overcast,60,2013-03-16 19:55:00
4:15 PM,33.8,32.0,93,29.77,5.0,NE,5.8,-,0.02,,Overcast,50,2013-03-16 20:15:00
4:35 PM,33.8,32.0,93,29.77,2.5,NE,4.6,-,0.03,,Overcast,50,2013-03-16 20:35:00
4:55 PM,33.8,32.0,93,29.76,5.0,ENE,4.6,-,0.04,,Overcast,70,2013-03-16 20:55:00
5:15 PM,33.8,32.0,93,29.76,7.0,NE,6.9,-,N/A,,Overcast,50,2013-03-16 21:15:00
5:35 PM,33.8,32.0,93,29.76,7.0,NE,3.5,-,N/A,,Overcast,50,2013-03-16 21:35:00
5:55 PM,33.8,32.0,93,29.76,5.0,ENE,5.8,-,N/A,,Overcast,60,2013-03-16 21:55:00
6:15 PM,33.8,32.0,93,29.77,7.0,NE,6.9,-,N/A,,Overcast,50,2013-03-16 22:15:00
6:35 PM,33.8,32.0,93,29.77,7.0,ENE,4.6,-,N/A,,Overcast,60,2013-03-16 22:35:00
6:55 PM,33.8,32.0,93,29.78,10.0,ENE,4.6,-,N/A,,Overcast,60,2013-03-16 22:55:00
7:15 PM,33.8,32.0,93,29.79,7.0,NE,3.5,-,N/A,,Overcast,40,2013-03-16 23:15:00
7:35 PM,33.8,32.0,93,29.80,7.0,Calm,Calm,-,N/A,,Overcast,0,2013-03-16 23:35:00
7:55 PM,33.8,32.0,93,29.81,5.0,Calm,Calm,-,N/A,,Overcast,0,2013-03-16 23:55:00
8:15 PM,33.8,32.0,93,29.83,4.0,Calm,Calm,-,N/A,,Overcast,0,2013-03-17 00:15:00
8:35 PM,33.8,32.0,93,29.84,3.0,Calm,Calm,-,N/A,,Overcast,0,2013-03-17 00:35:00
8:55 PM,33.8,32.0,93,29.85,2.5,NNE,3.5,-,N/A,,Overcast,30,2013-03-17 00:55:00
9:15 PM,33.8,32.0,93,29.86,3.0,Calm,Calm,-,N/A,,Overcast,0,2013-03-17 01:15:00
9:35 PM,33.8,32.0,93,29.86,3.0,Calm,Calm,-,N/A,,Overcast,0,2013-03-17 01:35:00
9:55 PM,33.8,32.0,93,29.87,7.0,Calm,Calm,-,N/A,,Mostly Cloudy,0,2013-03-17 01:55:00
10:15 PM,33.8,32.0,93,29.89,7.0,Calm,Calm,-,N/A,,Mostly Cloudy,0,2013-03-17 02:15:00
10:35 PM,33.8,32.0,93,29.90,5.0,Calm,Calm,-,N/A,,Overcast,0,2013-03-17 02:35:00
10:55 PM,33.8,32.0,93,29.91,7.0,Calm,Calm,-,N/A,,Overcast,0,2013-03-17 02:55:00
11:15 PM,33.8,32.0,93,29.91,7.0,Calm,Calm,-,N/A,,Mostly Cloudy,0,2013-03-17 03:15:00
11:35 PM,33.8,32.0,93,29.92,5.0,Calm,Calm,-,0.01,,Scattered Clouds,0,2013-03-17 03:35:00
11:55 PM,33.8,32.0,93,29.92,5.0,West,3.5,-,0.01,,Mostly Cloudy,280,2013-03-17 03:55:00